パンスターズ彗星

454P/PanSTARRS (2022)

English version
Home page
Updated on March 7, 2023

---------------------------------------------------------------------

・ プロフィール

符号 454P/2022 U5
発見日 2022年10月28日
発見光度 21.2等
発見者 Pan-STARRS 2 telescope (Haleakala)

・ 軌道要素

Epoch 2023 Feb. 25.0 TT = JDT 2460000.5
T 2022 July 26.01568 TT                                 Rudenko
q   2.6857768            (2000.0)            P               Q
n   0.11428290     Peri.   19.99966     +0.28226712     -0.91870402
a   4.2054764      Node    54.58778     +0.82761224     +0.08757251
e   0.3613621      Incl.   19.81245     +0.48516311     +0.38511555
P   8.62
>From 76 observations 2021 Aug. 5-2023 Jan. 24, mean residual 0".3.

・ 光度変化

        m1 = 14.0 + 5 logΔ + 10.0 log r

---------------------------------------------------------------------

軌道要素はM.P.E.C. 2023-B154に掲載されたものです。
光度グラフはComet for Windowsで作成したものです。

---------------------------------------------------------------------

Copyright(C) Seiichi Yoshida (comet@aerith.net). All rights reserved.